EW0631 Weather Reports


time (UTC)temp
C
wind
direction
speed
KPH
gust
KPH
rain 1hr
cm
rain 24hr
cm
rain mn
cm
humidity
%
barometer
mb
20260510191502 27 284 0.0 8.0 0.00 0.00 0.00 52 1017.0
20260510190115 27 185 0.0 6.4 0.00 0.00 0.00 52 1017.1
20260510184605 27 346 4.8 11.3 0.00 0.00 0.00 51 1017.0
20260510183100 27 306 1.6 9.7 0.00 0.00 0.00 52 1017.0
20260510181557 27 330 0.0 8.0 0.00 0.00 0.00 52 1016.9
20260510174543 27 306 3.2 11.3 0.00 0.00 0.00 49 1016.9
20260510173035 27 305 0.0 8.0 0.00 0.00 0.00 52 1017.1
20260510171519 26 302 0.0 6.4 0.00 0.00 0.00 53 1017.3
20260510170019 26 309 1.6 9.7 0.00 0.00 0.00 50 1017.4
20260510164515 26 217 0.0 3.2 0.00 0.00 0.00 53 1017.3
20260510163015 26 204 0.0 3.2 0.00 0.00 0.00 53 1017.5
20260510161522 25 195 0.0 1.6 0.00 0.00 0.00 55 1017.5
20260510160009 25 226 0.0 6.4 0.00 0.00 0.00 55 1017.5
20260510154507 25 118 0.0 3.2 0.00 0.00 0.00 57 1017.5
20260510153005 24 117 0.0 1.6 0.00 0.00 0.00 59 1017.4
20260510151551 23 116 0.0 6.4 0.00 0.00 0.00 59 1017.3
20260510150100 23 113 0.0 1.6 0.00 0.00 0.00 58 1017.0
20260510144605 22 113 0.0 3.2 0.00 0.00 0.00 62 1016.8
20260510143044 22 113 0.0 3.2 0.00 0.00 0.00 63 1016.7
20260510141543 21 115 0.0 6.4 0.00 0.00 0.00 68 1016.8
20260510140042 21 114 0.0 1.6 0.00 0.00 0.00 70 1016.8
20260510134547 20 114 0.0 3.2 0.00 0.00 0.00 72 1016.7
20260510133047 19 114 0.0 3.2 0.00 0.00 0.00 74 1016.6
20260510131527 18 117 0.0 6.4 0.00 0.00 0.00 79 1016.5
20260510130027 17 116 0.0 3.2 0.00 0.00 0.00 83 1016.6
20260510124525 16 114 0.0 1.6 0.00 0.00 0.00 84 1016.6
20260510123026 16 116 0.0 0.0 0.00 0.00 0.00 86 1016.7
20260510121526 15 116 0.0 0.0 0.00 0.00 0.00 87 1016.8
20260510120022 15 116 0.0 0.0 0.00 0.00 0.00 87 1016.5
20260510114523 15 116 0.0 0.0 0.00 0.00 0.00 86 1016.2
20260510113018 14 116 0.0 0.0 0.00 0.00 0.00 86 1016.0
20260510111502 -17 0.0 0.0 0.00 0.00 0.00 1015.7
20260510110058 -17 0.0 0.0 0.00 0.00 0.00 1015.3
20260510104601 -17 0.0 0.0 0.00 0.00 0.00 1015.0
20260510103050 -17 0.0 0.0 0.00 0.00 0.00 1014.8
20260510101547 -17 0.0 0.0 0.00 0.00 0.00 1014.7
20260510100056 14 116 0.0 0.0 0.00 0.00 0.00 81 1014.6
20260510094545 14 116 0.0 0.0 0.00 0.00 0.00 80 1014.5
20260510093034 14 116 0.0 0.0 0.00 0.00 0.00 79 1014.1
20260510091523 14 116 0.0 0.0 0.00 0.00 0.00 78 1013.9
20260510090024 14 116 0.0 0.0 0.00 0.00 0.00 77 1013.7
20260510084526 15 116 0.0 0.0 0.00 0.00 0.00 77 1013.8
20260510083019 15 116 0.0 0.0 0.00 0.00 0.00 76 1013.8
20260510081515 15 116 0.0 0.0 0.00 0.00 0.00 74 1013.5
20260510080015 15 116 0.0 0.0 0.00 0.00 0.00 73 1013.4
20260510074511 16 116 0.0 0.0 0.00 0.00 0.00 72 1013.4
20260510073009 16 116 0.0 0.0 0.00 0.00 0.00 70 1013.3
20260510071557 16 116 0.0 0.0 0.00 0.00 0.00 69 1013.4
20260510070108 17 116 0.0 0.0 0.00 0.00 0.00 68 1013.6
20260510064600 17 116 0.0 0.0 0.00 0.00 0.00 67 1013.8
20260510063059 17 116 0.0 0.0 0.00 0.00 0.00 66 1013.7
20260510061552 16 116 0.0 0.0 0.00 0.00 0.00 67 1013.5
20260510060052 17 116 0.0 0.0 0.00 0.00 0.00 70 1013.4
20260510054556 16 116 0.0 0.0 0.00 0.00 0.00 69 1013.4
20260510053049 16 116 0.0 0.0 0.00 0.00 0.00 70 1013.4
20260510051537 16 116 0.0 0.0 0.00 0.00 0.00 70 1013.2
20260510050035 16 116 0.0 0.0 0.00 0.00 0.00 68 1013.2
20260510044532 17 116 0.0 0.0 0.00 0.00 0.00 67 1013.0
20260510043030 17 116 0.0 0.0 0.00 0.00 0.00 67 1013.0
20260510041539 17 116 0.0 0.0 0.00 0.00 0.00 66 1013.0
20260510040027 17 116 0.0 0.0 0.00 0.00 0.00 65 1013.0
20260510034526 17 116 0.0 0.0 0.00 0.00 0.00 64 1013.0
20260510033024 18 116 0.0 1.6 0.00 0.00 0.00 63 1013.0
20260510031528 18 116 0.0 0.0 0.00 0.00 0.00 61 1013.0
20260510030003 18 116 0.0 0.0 0.00 0.00 0.00 59 1012.9
20260510024600 19 116 0.0 0.0 0.00 0.00 0.00 57 1012.8
20260510023039 19 116 0.0 0.0 0.00 0.00 0.00 58 1012.6
20260510021539 20 116 0.0 0.0 0.00 0.00 0.00 55 1012.5
20260510020025 20 116 0.0 0.0 0.00 0.00 0.00 53 1012.3
20260510014520 21 116 0.0 1.6 0.00 0.00 0.00 52 1012.1
20260510013018 21 116 0.0 0.0 0.00 0.00 0.00 50 1012.0
20260510011519 22 116 0.0 0.0 0.00 0.00 0.00 48 1011.8
20260510010019 23 116 0.0 0.0 0.00 0.00 0.00 46 1011.5
20260510004519 25 116 0.0 0.0 0.00 0.00 0.00 41 1011.4
20260510003017 25 116 0.0 0.0 0.00 0.00 0.00 38 1011.2
20260510001522 26 116 0.0 0.0 0.00 0.00 0.00 35 1011.1
20260510000005 26 116 0.0 1.6 0.00 0.00 0.00 32 1011.1
20260509234506 27 116 0.0 1.6 0.00 0.00 0.00 33 1010.9
20260509233004 27 117 0.0 3.2 0.00 0.00 0.00 31 1010.8
20260509231505 27 117 0.0 6.4 0.00 0.00 0.00 29 1010.6
20260509230003 28 114 0.0 6.4 0.00 0.00 0.00 28 1010.6
20260509224503 28 112 0.0 6.4 0.00 0.00 0.00 27 1010.7
20260509223102 28 96 3.2 8.0 0.00 0.00 0.00 28 1010.8
20260509223002 28 90 3.2 8.0 0.00 0.00 0.00 28 1010.8
20260509221601 28 84 1.6 9.7 0.00 0.00 0.00 29 1010.8
20260509221502 28 113 3.2 9.7 0.00 0.00 0.00 28 1010.9
20260509220055 28 119 1.6 4.8 0.00 0.00 0.00 28 1010.9
20260509214543 28 115 0.0 6.4 0.00 0.00 0.00 29 1010.9
20260509213028 28 88 0.0 3.2 0.00 0.00 0.00 32 1010.8
20260509211528 28 121 0.0 6.4 0.00 0.00 0.00 31 1010.8
20260509210028 28 101 1.6 8.0 0.00 0.00 0.00 32 1010.8
20260509204529 28 302 0.0 6.4 0.00 0.00 0.00 32 1010.8
20260509203021 28 184 0.0 6.4 0.00 0.00 0.00 34 1010.9
20260509201521 28 126 0.0 8.0 0.00 0.00 0.00 34 1011.0
20260509200019 28 128 0.0 6.4 0.00 0.00 0.00 35 1011.1
20260509194515 27 139 1.6 6.4 0.00 0.00 0.00 36 1011.3
20260509193002 27 184 3.2 11.3 0.00 0.00 0.00 37 1011.5